Location: Góry Miechowskie
(50.3599°N, 20.1803°E)
Time: 21:03:57
(UTC+00:00)

MSX - Visible Passes

Search period start: 13 September 2024 00:00
Search period end: 23 September 2024 00:00
Orbit: 895 x 905 km, 99.0° (Epoch: 12 September)

Date Brightness Start Highest point End Pass type
(mag) Time Alt. Az. Time Alt. Az. Time Alt. Az.
13 Sep 4.5 00:06:50 10° NNE 00:12:02 48° E 00:12:02 48° E visible
13 Sep 4.6 01:48:51 10° N 01:53:57 34° WNW 01:55:04 31° W visible
14 Sep 4.4 00:09:22 10° NNE 00:14:30 49° E 00:14:30 49° E visible
14 Sep 4.7 01:51:25 10° N 01:56:28 33° WNW 01:57:32 31° W visible
15 Sep 4.4 00:11:53 10° NNE 00:16:58 51° E 00:16:58 51° E visible
15 Sep 4.7 01:53:59 10° N 01:58:59 32° WNW 02:00:00 30° W visible
16 Sep 4.4 00:14:24 10° NNE 00:19:26 52° ENE 00:19:26 52° ENE visible
16 Sep 4.7 01:56:34 10° N 02:01:29 31° WNW 02:02:28 29° WNW visible
17 Sep 4.4 00:16:56 10° NNE 00:21:54 54° ENE 00:21:54 54° ENE visible
17 Sep 4.8 01:59:07 10° N 02:04:00 29° WNW 02:04:56 28° WNW visible
18 Sep 4.3 00:19:27 10° NNE 00:24:22 55° ENE 00:24:22 55° ENE visible
18 Sep 4.8 02:01:42 10° N 02:06:30 28° WNW 02:07:24 27° WNW visible
18 Sep 6.4 22:43:36 10° ENE 22:43:47 10° ENE 22:43:47 10° ENE visible
19 Sep 4.3 00:22:00 10° NNE 00:26:49 55° ENE 00:26:49 55° ENE visible
19 Sep 4.9 02:04:16 10° N 02:09:01 27° WNW 02:09:51 26° WNW visible
19 Sep 6.4 22:45:43 10° ENE 22:46:15 11° ENE 22:46:15 11° ENE visible
20 Sep 4.3 00:24:30 10° NNE 00:29:17 56° NE 00:29:17 56° NE visible
20 Sep 4.9 02:06:50 10° N 02:11:31 26° WNW 02:12:19 26° WNW visible
20 Sep 6.3 22:47:56 10° ENE 22:48:43 11° ENE 22:48:43 11° ENE visible
21 Sep 4.3 00:27:02 10° NNE 00:31:45 56° NE 00:31:45 56° NE visible
21 Sep 5.0 02:09:25 10° N 02:14:01 25° WNW 02:14:47 25° WNW visible
21 Sep 6.3 22:50:13 10° ENE 22:51:10 12° ENE 22:51:10 12° ENE visible
22 Sep 4.3 00:29:33 10° NNE 00:34:12 56° NE 00:34:12 56° NE visible
22 Sep 5.0 02:11:59 10° N 02:16:32 25° WNW 02:17:14 24° WNW visible
22 Sep 6.3 22:52:32 10° ENE 22:53:38 12° ENE 22:53:38 12° ENE visible
